Location: Unspecified
(0.0000°N, 0.0000°E)
Time: 22:13:48
(UTC+00:00)

Terriers - Visible Passes

Search period start: 01 March 2021 00:00
Search period end: 11 March 2021 00:00
Orbit: 411 x 420 km, 97.3° (Epoch: 01 March)

Date Brightness Start Highest point End Pass type
(mag) Time Alt. Az. Time Alt. Az. Time Alt. Az.
01 Mar 6.4 05:37:35 10° SSE 05:40:41 48° E 05:43:45 10° N visible
03 Mar 6.2 05:38:54 10° SSE 05:42:01 51° E 05:45:06 10° N visible
05 Mar 6.1 05:40:12 10° SSE 05:43:20 54° E 05:46:26 10° N visible
07 Mar 6.0 05:41:29 10° SSE 05:44:37 57° E 05:47:44 10° N visible
09 Mar 5.9 05:42:45 10° SSE 05:45:53 61° E 05:49:00 10° N visible
